ICT,Max TemperatureF,Mean TemperatureF,Min TemperatureF,Max Dew PointF,MeanDew PointF,Min DewpointF,Max Humidity, Mean Humidity, Min Humidity, Max Sea Level PressureIn, Mean Sea Level PressureIn, Min Sea Level PressureIn, Max VisibilityMiles, Mean VisibilityMiles, Min VisibilityMiles, Max Wind SpeedMPH, Mean Wind SpeedMPH, Max Gust SpeedMPH,PrecipitationIn, CloudCover, Events, WindDirDegrees
2012-10-1,87,82,76,76,73,70,94,74,58,29.92,29.88,29.80,6,6,3,9,5,,0.00,4,Rain,331
2012-10-2,87,82,77,78,74,72,92,78,62,29.92,29.87,29.59,6,5,1,16,5,,0.00,4,Rain-Thunderstorm,220
2012-10-3,89,82,76,76,74,72,97,74,58,29.89,29.82,29.74,6,6,6,8,5,,0.00,4,Rain,222
2012-10-4,91,83,75,77,73,72,97,70,52,29.86,29.79,29.71,6,6,4,20,5,,0.00,3,Rain-Thunderstorm,249
2012-10-5,89,82,75,78,73,70,89,72,55,29.86,29.80,29.71,6,6,5,18,5,,0.00,2,Thunderstorm,237
2012-10-6,86,80,75,76,74,72,89,82,66,29.86,29.82,29.74,6,6,2,22,6,,0.00,5,Rain-Thunderstorm,290
2012-10-7,82,78,73,75,73,72,94,83,70,29.83,29.78,29.71,6,5,3,13,4,,0.00,6,Rain,262
2012-10-8,87,80,74,76,74,73,97,73,62,29.86,29.79,29.71,6,6,5,14,5,,0.00,5,Rain,185
2012-10-9,87,82,77,77,74,73,96,77,62,29.89,29.83,29.77,6,6,4,10,4,,0.00,3,Rain,137
2012-10-10,89,83,77,77,73,68,91,67,49,29.92,29.85,29.77,6,6,4,17,5,,0.00,3,,30
2012-10-11,91,82,73,75,72,68,89,64,46,29.92,29.84,29.77,6,6,6,10,5,,0.28,2,,15
2012-10-12,91,84,78,75,73,70,89,65,52,29.89,29.82,29.53,6,6,5,12,4,,0.00,3,,345
2012-10-13,87,81,75,75,74,72,89,77,58,29.92,29.85,29.77,6,6,3,15,5,,0.00,3,Rain-Thunderstorm,213
2012-10-14,87,82,78,75,74,70,89,72,55,29.92,29.87,29.80,6,6,6,9,5,,0.00,3,,181
2012-10-15,87,82,78,75,74,72,89,75,62,29.98,29.91,29.83,6,6,2,8,4,,0.00,3,Rain,118
2012-10-16,89,83,77,76,74,73,90,74,59,29.98,29.90,29.83,6,6,5,9,4,,0.00,3,,239
2012-10-17,89,84,78,77,74,72,92,70,58,29.95,29.87,29.80,6,6,6,9,4,,0.00,1,Rain,196
2012-10-18,89,83,77,76,72,68,93,68,52,29.95,29.88,29.83,6,6,3,14,5,,0.00,2,,337
2012-10-19,89,84,78,73,70,68,78,59,49,29.92,29.88,29.83,6,6,6,18,8,,0.00,1,,54
2012-10-20,89,81,73,78,72,70,88,63,52,29.92,29.87,29.78,6,6,5,16,6,,0.00,1,,27
2012-10-21,91,84,78,77,73,70,88,65,52,29.92,29.85,29.77,6,6,2,12,5,,0.00,2,,342
2012-10-22,91,84,77,75,71,68,89,65,49,29.92,29.85,29.77,6,6,4,17,9,,0.00,3,Rain,53
2012-10-23,89,82,76,78,72,70,91,69,52,29.86,29.82,29.74,6,6,3,20,7,,0.00,4,Rain-Thunderstorm,48
2012-10-24,89,83,77,77,74,70,89,68,55,29.89,29.81,29.74,6,6,6,13,5,,0.00,4,,4
2012-10-25,91,86,80,75,71,68,84,60,49,29.86,29.80,29.74,6,6,6,18,8,,0.00,1,,32
2012-10-26,89,83,77,75,71,66,79,60,46,29.83,29.77,29.71,6,6,6,12,6,,0.00,1,,357
2012-10-27,91,84,77,76,72,70,93,62,49,29.83,29.77,29.68,6,6,6,9,5,,0.00,3,,264
2012-10-28,91,84,77,77,74,68,84,66,52,29.86,29.81,29.74,6,6,6,13,4,,0.00,2,,165
2012-10-29,89,83,77,78,74,66,94,71,55,29.89,29.82,29.74,6,6,3,13,4,,0.00,2,,203
2012-10-30,89,84,79,79,75,73,93,72,62,29.86,29.80,29.71,6,6,5,10,5,,0.00,3,Rain,221
2012-10-31,89,83,77,77,74,68,86,72,62,29.92,29.84,29.77,6,6,4,10,4,,0.00,3,Rain-Thunderstorm,314